Location: Lecco
(45.8566°N, 9.3977°E)
Time: 08:43:32
(UTC+02:00)

Altair - Pass Details

Date: 16 August 2020
Orbit: 1501 x 1682 km, 47.2° (Epoch: 25 September)

Event Time Altitude Azimuth Distance (km) Brightness Sun altitude
Rises 06:39:30 0° 283° (WNW) 4,755 9.5 1.7°
Reaches altitude 10° 06:42:37 10° 284° (WNW) 3,747 9.0 2.2°
Maximum altitude 06:52:05 87° 197° (SSW) 1,527 7.6 3.8°
Drops below altitude 10° 07:01:17 10° 109° (ESE) 3,651 10.6 5.4°
Sets 07:04:17 0° 109° (ESE) 4,628 11.1 5.9°
